Miscellaneous Local Product
Issued by NWS Hastings, NE

Current Version | Previous Version | Text Only | Print | Product List | Glossary On
Versions: 1 2 3 4 5 6 7 8 9 10 11 12 13 14 15 16 17 18 19 20 21 22 23 24 25 26 27 28 29 30 31 32 33 34 35 36 37 38 39 40 41 42 43 44 45 46 47 48 49 50
000
AXUS43 KGID 310902
MISGRI

GID CWA HOURLY WEATHER ROUNDUP
NATIONAL WEATHER SERVICE HASTINGS NE
300 AM CST SAT JAN 31 2015

NOTE: "FAIR" INDICATES FEW OR NO CLOUDS BELOW 12,000 FEET WITH NO
SIGNIFICANT WEATHER AND/OR OBSTRUCTIONS TO VISIBILITY.

...SOUTH CENTRAL NEBRASKA...

CITY           SKY/WX    TMP DP  RH WIND       PRES   REMARKS
GRAND ISLAND   CLOUDY    36  32  85 S17       30.14F WCI  26
HASTINGS       MIX PCPN  33  31  92 S7        30.14F WCI  27
KEARNEY        CLOUDY    34  30  86 S10       30.12F WCI  26
ORD            CLOUDY    34  30  85 S7        30.10F WCI  28
YORK           CLOUDY    36  32  87 SW10      30.17F WCI  28
AURORA         CLOUDY    35  33  93 S14       30.15F WCI  26
LEXINGTON      CLOUDY    35  32  91 S12       30.10F WCI  26
HOLDREGE       MIX PCPN  33  32  96 S8        30.12F WCI  26
HEBRON         LGT RAIN  34  32  92 S7        30.21F WCI  28

...NEBRASKA PANHANDLE...

CITY           SKY/WX    TMP DP  RH WIND       PRES   REMARKS
CHADRON        CLOUDY    27  24  89 CALM      30.05F
ALLIANCE       CLOUDY    28  26  92 N6        30.01F WCI  22
SCOTTSBLUFF    CLOUDY    33  26  75 CALM      30.02F
SIDNEY         CLOUDY    32  28  85 NW7       29.98F WCI  26

...WESTERN AND NORTH CENTRAL NEBRASKA...

CITY           SKY/WX    TMP DP  RH WIND       PRES   REMARKS
VALENTINE      CLOUDY    27  24  89 CALM      30.05S
AINSWORTH      CLOUDY    33  29  88 SW3       30.05F
ONEILL         CLOUDY    34  31  87 S6        30.09S WCI  29
BROKEN BOW     CLOUDY    36  33  89 S10       30.07F WCI  28
IMPERIAL       CLOUDY    34  32  92 SE8       30.00F WCI  27
NORTH PLATTE   CLOUDY    35  32  88 S8        30.05F WCI  29
MCCOOK         LGT SNOW  34  32  92 SE6       30.07F FOG     WCI  29

...EASTERN NEBRASKA...

CITY           SKY/WX    TMP DP  RH WIND       PRES   REMARKS
NORFOLK        CLOUDY    37  32  82 SW7       30.13F WCI  32
SO SIOUX CITY  MOCLDY    27  24  89 E6        30.15F WCI  20
TEKAMAH        CLOUDY    34  28  79 S10       30.18F WCI  26
COLUMBUS       CLOUDY    37  30  75 SW12      30.17F WCI  30
ALBION         CLOUDY    37  31  81 S5        30.13S WCI  33
OMAHA EPPLEY   CLOUDY    32  26  78 SE8       30.21F WCI  25
OFFUTT AFB     CLOUDY    30  26  83 E3        30.21F
MILLARD        CLOUDY    34  27  77 SE3       30.21F
LINCOLN        CLOUDY    38  33  82 SW10      30.21F WCI  31
NEBRASKA CITY  CLOUDY    38  31  78 SW14      30.23F WCI  29
BEATRICE       DRIZZLE   35  34  96 S8        30.23F WCI  28
FALLS CITY     LGT RAIN  37  32  82 SW9       30.26F WCI  30

...NORTHERN KANSAS...

CITY           SKY/WX    TMP DP  RH WIND       PRES   REMARKS
GOODLAND       CLOUDY    34  33  96 S14       30.00F WCI  25
HILL CITY      CLOUDY    34  32  92 SE7       30.13F WCI  28
NORTON         LGT SNOW  34  30  86 SE9       30.10F WCI  26
PHILLIPSBURG   LGT SNOW  36  36 100 SE7       30.15F WCI  30
SMITH CENTER   LGT SNOW  30  30 100 SE10      30.18F WCI  21
BELOIT         CLOUDY    34  34 100 SE10      30.21S WCI  26
HAYS           CLOUDY    32  25  74 SE10      30.15F WCI  24
RUSSELL        LGT SNOW  32  32 100 S7        30.17F FOG     WCI  26
CONCORDIA      LGT RAIN  33  33 100 S7        30.22F FOG     WCI  27
SALINA         CLOUDY    36  33  89 S3        30.25S
TOPEKA         MIX PCPN  35  33  92 CALM      30.29F



USA.gov is the U.S. government's official web portal to all federal, state and local government web resources and services.